Location: Auckland
(36.8670°S, 174.7670°E)
Time: 18:59:34
(UTC+12:00)

Courier 1B Rocket - Pass Details

Date: 25 July 2019
Orbit: 920 x 1202 km, 28.3° (Epoch: 21 August)

Event Time Altitude Azimuth Distance (km) Brightness Sun altitude
Rises 03:48:52 0° 297° (WNW) 4,098 - -43.1°
Reaches altitude 10° 03:51:55 10° 304° (NW) 3,137 - -42.5°
Maximum altitude 03:59:06 40° 10° (N) 1,687 - -41.1°
Exits shadow 04:01:20 33° 45° (NE) 1,868 6.6 -40.7°
Drops below altitude 10° 04:06:04 10° 76° (ENE) 3,050 8.2 -39.7°
Sets 04:09:00 0° 83° (E) 3,975 9.1 -39.1°
